| time (UTC) | temp F | wind direction | speed MPH | gust MPH | rain 1hr in | rain 24hr in | rain mn in | humidity % | barometer mb |
| 20260508131548 | 53 | 216 | 6.0 | 12.0 | 0.00 | 0.00 | 0.00 | 44 | 1014.5 |
| 20260508131034 | 54 | 216 | 6.0 | 14.0 | 0.00 | 0.00 | 0.00 | 44 | 1014.5 |
| 20260508130535 | 54 | 216 | 9.0 | 14.0 | 0.00 | 0.00 | 0.00 | 44 | 1014.6 |
| 20260508130047 | 53 | 217 | 5.0 | 9.0 | 0.00 | 0.00 | 0.00 | 44 | 1014.4 |
| 20260508125534 | 53 | 217 | 4.0 | 11.0 | 0.00 | 0.00 | 0.00 | 44 | 1014.5 |
| 20260508125035 | 53 | 217 | 6.0 | 12.0 | 0.00 | 0.00 | 0.00 | 44 | 1014.5 |
| 20260508124548 | 54 | 217 | 7.0 | 12.0 | 0.00 | 0.00 | 0.00 | 44 | 1014.5 |
| 20260508124034 | 54 | 217 | 3.0 | 10.0 | 0.00 | 0.00 | 0.00 | 44 | 1014.4 |
| 20260508123534 | 54 | 217 | 5.0 | 10.0 | 0.00 | 0.00 | 0.00 | 44 | 1014.4 |
| 20260508123104 | 54 | 217 | 4.0 | 9.0 | 0.00 | 0.00 | 0.00 | 44 | 1014.4 |
| 20260508122534 | 54 | 217 | 4.0 | 12.0 | 0.00 | 0.00 | 0.00 | 44 | 1014.4 |
| 20260508122034 | 54 | 217 | 3.0 | 12.0 | 0.00 | 0.00 | 0.00 | 44 | 1014.4 |
| 20260508121546 | 54 | 217 | 6.0 | 14.0 | 0.00 | 0.00 | 0.00 | 44 | 1014.4 |
| 20260508121034 | 54 | 217 | 6.0 | 16.0 | 0.00 | 0.00 | 0.00 | 44 | 1014.6 |
| 20260508120534 | 54 | 218 | 8.0 | 16.0 | 0.00 | 0.00 | 0.00 | 44 | 1014.5 |
| 20260508120047 | 54 | 218 | 8.0 | 15.0 | 0.00 | 0.00 | 0.00 | 44 | 1014.5 |
| 20260508115534 | 54 | 224 | 7.0 | 15.0 | 0.00 | 0.00 | 0.00 | 43 | 1014.5 |
| 20260508115033 | 55 | 227 | 4.0 | 13.0 | 0.00 | 0.00 | 0.00 | 43 | 1014.5 |
| 20260508114551 | 55 | 227 | 5.0 | 13.0 | 0.00 | 0.00 | 0.00 | 42 | 1014.4 |
| 20260508114030 | 55 | 227 | 5.0 | 12.0 | 0.00 | 0.00 | 0.00 | 41 | 1014.4 |
| 20260508113535 | 55 | 227 | 5.0 | 12.0 | 0.00 | 0.00 | 0.00 | 41 | 1014.5 |
| 20260508113103 | 55 | 227 | 6.0 | 13.0 | 0.00 | 0.00 | 0.00 | 41 | 1014.4 |
| 20260508112535 | 55 | 227 | 6.0 | 14.0 | 0.00 | 0.00 | 0.00 | 40 | 1014.3 |
| 20260508112037 | 55 | 227 | 9.0 | 14.0 | 0.00 | 0.00 | 0.00 | 40 | 1014.3 |
| 20260508111547 | 55 | 227 | 5.0 | 13.0 | 0.00 | 0.00 | 0.00 | 40 | 1014.4 |
| 20260508111034 | 55 | 227 | 5.0 | 10.0 | 0.00 | 0.00 | 0.00 | 40 | 1014.3 |
| 20260508110534 | 55 | 227 | 6.0 | 12.0 | 0.00 | 0.00 | 0.00 | 40 | 1014.3 |
| 20260508110045 | 55 | 227 | 4.0 | 13.0 | 0.00 | 0.00 | 0.00 | 38 | 1014.3 |
| 20260508105534 | 55 | 227 | 5.0 | 13.0 | 0.00 | 0.00 | 0.00 | 39 | 1014.3 |
| 20260508105033 | 55 | 227 | 2.0 | 11.0 | 0.00 | 0.00 | 0.00 | 40 | 1014.2 |
| 20260508104542 | 55 | 227 | 5.0 | 12.0 | 0.00 | 0.00 | 0.00 | 40 | 1014.2 |
| 20260508104036 | 55 | 227 | 7.0 | 13.0 | 0.00 | 0.00 | 0.00 | 40 | 1014.2 |
| 20260508103534 | 55 | 227 | 7.0 | 14.0 | 0.00 | 0.00 | 0.00 | 40 | 1014.2 |
| 20260508103041 | 55 | 227 | 6.0 | 14.0 | 0.00 | 0.00 | 0.00 | 40 | 1014.2 |
| 20260508102533 | 55 | 227 | 4.0 | 14.0 | 0.00 | 0.00 | 0.00 | 39 | 1014.2 |
| 20260508102038 | 54 | 227 | 1.0 | 9.0 | 0.00 | 0.00 | 0.00 | 39 | 1014.2 |
| 20260508101541 | 54 | 227 | 3.0 | 10.0 | 0.00 | 0.00 | 0.00 | 39 | 1014.1 |
| 20260508101035 | 54 | 227 | 5.0 | 12.0 | 0.00 | 0.00 | 0.00 | 39 | 1014.1 |
| 20260508100534 | 54 | 227 | 6.0 | 12.0 | 0.00 | 0.00 | 0.00 | 39 | 1014.2 |
| 20260508100048 | 54 | 227 | 6.0 | 9.0 | 0.00 | 0.00 | 0.00 | 39 | 1014.3 |
| 20260508095534 | 54 | 227 | 4.0 | 10.0 | 0.00 | 0.00 | 0.00 | 41 | 1014.1 |
| 20260508095034 | 55 | 227 | 6.0 | 12.0 | 0.00 | 0.00 | 0.00 | 39 | 1014.2 |
| 20260508094606 | 55 | 227 | 6.0 | 12.0 | 0.00 | 0.00 | 0.00 | 39 | 1014.0 |
| 20260508094037 | 55 | 227 | 6.0 | 10.0 | 0.00 | 0.00 | 0.00 | 39 | 1014.0 |
| 20260508093534 | 55 | 227 | 7.0 | 10.0 | 0.00 | 0.00 | 0.00 | 40 | 1014.0 |
| 20260508093043 | 55 | 227 | 6.0 | 9.0 | 0.00 | 0.00 | 0.00 | 40 | 1014.1 |
| 20260508092533 | 55 | 227 | 5.0 | 9.0 | 0.00 | 0.00 | 0.00 | 39 | 1014.1 |
| 20260508092033 | 55 | 227 | 6.0 | 8.0 | 0.00 | 0.00 | 0.00 | 40 | 1014.0 |
| 20260508091542 | 55 | 227 | 5.0 | 9.0 | 0.00 | 0.00 | 0.00 | 41 | 1014.0 |
| 20260508091035 | 55 | 227 | 5.0 | 9.0 | 0.00 | 0.00 | 0.00 | 41 | 1014.0 |
| 20260508090531 | 55 | 227 | 5.0 | 9.0 | 0.00 | 0.00 | 0.00 | 42 | 1014.0 |
| 20260508090049 | 55 | 227 | 5.0 | 9.0 | 0.00 | 0.00 | 0.00 | 43 | 1014.1 |
| 20260508085533 | 55 | 227 | 5.0 | 9.0 | 0.00 | 0.00 | 0.00 | 44 | 1014.0 |
| 20260508085030 | 55 | 227 | 5.0 | 8.0 | 0.00 | 0.00 | 0.00 | 45 | 1014.0 |
| 20260508084537 | 55 | 227 | 3.0 | 8.0 | 0.00 | 0.00 | 0.00 | 46 | 1014.0 |
| 20260508084034 | 55 | 227 | 3.0 | 10.0 | 0.00 | 0.00 | 0.00 | 47 | 1014.0 |
| 20260508083535 | 55 | 227 | 4.0 | 10.0 | 0.00 | 0.00 | 0.00 | 48 | 1014.0 |
| 20260508083038 | 55 | 227 | 5.0 | 10.0 | 0.00 | 0.00 | 0.00 | 48 | 1014.0 |
| 20260508082533 | 55 | 227 | 3.0 | 8.0 | 0.00 | 0.00 | 0.00 | 48 | 1014.1 |
| 20260508082033 | 56 | 227 | 3.0 | 7.0 | 0.00 | 0.00 | 0.00 | 48 | 1014.0 |
| 20260508081600 | 56 | 227 | 3.0 | 6.0 | 0.00 | 0.00 | 0.00 | 49 | 1013.9 |
| 20260508081035 | 56 | 227 | 3.0 | 6.0 | 0.00 | 0.00 | 0.00 | 49 | 1013.9 |
| 20260508080535 | 56 | 227 | 3.0 | 6.0 | 0.00 | 0.00 | 0.00 | 49 | 1014.0 |
| 20260508080041 | 55 | 227 | 3.0 | 6.0 | 0.00 | 0.00 | 0.00 | 50 | 1013.9 |
| 20260508075535 | 55 | 227 | 2.0 | 5.0 | 0.00 | 0.00 | 0.00 | 51 | 1013.8 |
| 20260508075036 | 56 | 227 | 2.0 | 4.0 | 0.00 | 0.00 | 0.00 | 51 | 1013.8 |
| 20260508074540 | 56 | 227 | 0.0 | 7.0 | 0.00 | 0.00 | 0.00 | 50 | 1013.7 |
| 20260508074034 | 57 | 227 | 2.0 | 7.0 | 0.00 | 0.00 | 0.00 | 49 | 1013.7 |
| 20260508073534 | 57 | 227 | 3.0 | 7.0 | 0.00 | 0.00 | 0.00 | 49 | 1013.7 |
| 20260508073048 | 57 | 227 | 5.0 | 7.0 | 0.00 | 0.00 | 0.00 | 50 | 1013.8 |
| 20260508072530 | 55 | 227 | 4.0 | 6.0 | 0.00 | 0.00 | 0.00 | 53 | 1013.7 |
| 20260508072034 | 54 | 227 | 1.0 | 4.0 | 0.00 | 0.00 | 0.00 | 57 | 1013.7 |
| 20260508071544 | 54 | 227 | 1.0 | 4.0 | 0.00 | 0.00 | 0.00 | 56 | 1013.7 |
| 20260508071033 | 54 | 227 | 0.0 | 4.0 | 0.00 | 0.00 | 0.00 | 56 | 1013.7 |
| 20260508070533 | 54 | 227 | 1.0 | 4.0 | 0.00 | 0.00 | 0.00 | 55 | 1013.7 |
| 20260508070046 | 54 | 227 | 1.0 | 4.0 | 0.00 | 0.00 | 0.00 | 56 | 1013.7 |
| 20260508065534 | 53 | 227 | 0.0 | 2.0 | 0.00 | 0.00 | 0.00 | 56 | 1013.6 |
| 20260508065033 | 53 | 0 | 0.0 | 5.0 | 0.00 | 0.00 | 0.00 | 57 | 1013.7 |
| 20260508064542 | 53 | 0 | 0.0 | 5.0 | 0.00 | 0.00 | 0.00 | 58 | 1013.7 |
| 20260508064035 | 52 | 227 | 1.0 | 4.0 | 0.00 | 0.00 | 0.00 | 58 | 1013.8 |
| 20260508063534 | 53 | 0 | 0.0 | 4.0 | 0.00 | 0.00 | 0.00 | 60 | 1013.7 |
| 20260508063052 | 51 | 227 | 1.0 | 4.0 | 0.00 | 0.00 | 0.00 | 61 | 1013.7 |
| 20260508062533 | 51 | 227 | 2.0 | 4.0 | 0.00 | 0.00 | 0.00 | 64 | 1013.5 |
| 20260508062033 | 51 | 227 | 1.0 | 4.0 | 0.00 | 0.00 | 0.00 | 67 | 1013.5 |
| 20260508061541 | 49 | 227 | 0.0 | 2.0 | 0.00 | 0.00 | 0.00 | 70 | 1013.5 |
| 20260508061034 | 49 | 0 | 0.0 | 3.0 | 0.00 | 0.00 | 0.00 | 71 | 1013.4 |
| 20260508060534 | 49 | 227 | 1.0 | 3.0 | 0.00 | 0.00 | 0.00 | 71 | 1013.5 |
| 20260508060043 | 49 | 0 | 1.0 | 3.0 | 0.00 | 0.00 | 0.00 | 72 | 1013.4 |
| 20260508055533 | 48 | 0 | 0.0 | 0.0 | 0.00 | 0.00 | 0.00 | 72 | 1013.5 |
| 20260508055037 | 49 | 0 | 0.0 | 0.0 | 0.00 | 0.00 | 0.00 | 72 | 1013.6 |
| 20260508054539 | 49 | 0 | 0.0 | 0.0 | 0.00 | 0.00 | 0.00 | 71 | 1013.5 |
| 20260508054032 | 49 | 0 | 0.0 | 0.0 | 0.00 | 0.00 | 0.00 | 71 | 1013.6 |
| 20260508053534 | 50 | 0 | 0.0 | 0.0 | 0.00 | 0.00 | 0.00 | 71 | 1013.5 |
| 20260508053044 | 50 | 0 | 0.0 | 0.0 | 0.00 | 0.00 | 0.00 | 70 | 1013.6 |
| 20260508052534 | 50 | 0 | 0.0 | 0.0 | 0.00 | 0.00 | 0.00 | 70 | 1013.5 |
| 20260508052033 | 50 | 0 | 0.0 | 0.0 | 0.00 | 0.00 | 0.00 | 70 | 1013.5 |
| 20260508051542 | 51 | 0 | 0.0 | 0.0 | 0.00 | 0.00 | 0.00 | 69 | 1013.5 |
| 20260508051036 | 51 | 0 | 0.0 | 0.0 | 0.00 | 0.00 | 0.00 | 69 | 1013.5 |
| 20260508050534 | 51 | 0 | 0.0 | 0.0 | 0.00 | 0.00 | 0.00 | 70 | 1013.3 |
| 20260508050043 | 51 | 0 | 0.0 | 0.0 | 0.00 | 0.00 | 0.00 | 70 | 1013.5 |
| 20260508045533 | 51 | 0 | 0.0 | 0.0 | 0.00 | 0.00 | 0.00 | 70 | 1013.5 |
| 20260508045033 | 51 | 0 | 0.0 | 0.0 | 0.00 | 0.00 | 0.00 | 69 | 1013.6 |
| 20260508044546 | 52 | 0 | 0.0 | 0.0 | 0.00 | 0.00 | 0.00 | 69 | 1013.5 |
| 20260508044034 | 52 | 0 | 0.0 | 0.0 | 0.00 | 0.00 | 0.00 | 69 | 1013.6 |
| 20260508043532 | 52 | 0 | 0.0 | 2.0 | 0.00 | 0.00 | 0.00 | 67 | 1013.7 |
| 20260508043046 | 53 | 0 | 0.0 | 2.0 | 0.00 | 0.00 | 0.00 | 65 | 1013.7 |
| 20260508042533 | 53 | 227 | 0.0 | 2.0 | 0.00 | 0.00 | 0.00 | 66 | 1013.7 |
| 20260508042034 | 54 | 0 | 0.0 | 1.0 | 0.00 | 0.00 | 0.00 | 67 | 1013.7 |
| 20260508041544 | 54 | 0 | 0.0 | 1.0 | 0.00 | 0.00 | 0.00 | 66 | 1013.7 |
| 20260508041034 | 54 | 0 | 0.0 | 1.0 | 0.00 | 0.00 | 0.00 | 66 | 1013.8 |
| 20260508040534 | 55 | 0 | 0.0 | 0.0 | 0.00 | 0.00 | 0.00 | 65 | 1013.7 |
| 20260508040051 | 55 | 0 | 0.0 | 0.0 | 0.00 | 0.00 | 0.00 | 65 | 1013.6 |
| 20260508035534 | 56 | 0 | 0.0 | 0.0 | 0.00 | 0.00 | 0.00 | 64 | 1013.6 |
| 20260508035036 | 56 | 0 | 0.0 | 0.0 | 0.00 | 0.00 | 0.00 | 63 | 1013.5 |
| 20260508034539 | 57 | 0 | 0.0 | 0.0 | 0.00 | 0.00 | 0.00 | 61 | 1013.5 |
| 20260508034034 | 58 | 0 | 0.0 | 4.0 | 0.00 | 0.00 | 0.00 | 60 | 1013.4 |
| 20260508033533 | 58 | 0 | 0.0 | 4.0 | 0.00 | 0.00 | 0.00 | 59 | 1013.4 |
| 20260508033038 | 59 | 227 | 1.0 | 3.0 | 0.00 | 0.00 | 0.00 | 57 | 1013.4 |
| 20260508032531 | 60 | 0 | 0.0 | 0.0 | 0.00 | 0.00 | 0.00 | 56 | 1013.5 |
| 20260508032035 | 61 | 0 | 0.0 | 0.0 | 0.00 | 0.00 | 0.00 | 54 | 1013.3 |
| 20260508031549 | 62 | 0 | 0.0 | 0.0 | 0.00 | 0.00 | 0.00 | 52 | 1013.2 |
| 20260508031034 | 63 | 0 | 0.0 | 0.0 | 0.00 | 0.00 | 0.00 | 52 | 1013.2 |
| 20260508030534 | 63 | 0 | 0.0 | 0.0 | 0.00 | 0.00 | 0.00 | 51 | 1013.2 |
| 20260508030045 | 64 | 0 | 0.0 | 0.0 | 0.00 | 0.00 | 0.00 | 50 | 1013.1 |
| 20260508025533 | 65 | 0 | 0.0 | 0.0 | 0.00 | 0.00 | 0.00 | 48 | 1013.0 |
| 20260508025034 | 66 | 0 | 0.0 | 0.0 | 0.00 | 0.00 | 0.00 | 48 | 1013.1 |
| 20260508024549 | 66 | 0 | 0.0 | 0.0 | 0.00 | 0.00 | 0.00 | 47 | 1013.1 |
| 20260508024031 | 66 | 0 | 0.0 | 1.0 | 0.00 | 0.00 | 0.00 | 45 | 1013.0 |
| 20260508023534 | 67 | 0 | 0.0 | 3.0 | 0.00 | 0.00 | 0.00 | 46 | 1013.0 |
| 20260508023040 | 67 | 0 | 0.0 | 3.0 | 0.00 | 0.00 | 0.00 | 47 | 1013.1 |
| 20260508022533 | 68 | 227 | 2.0 | 4.0 | 0.00 | 0.00 | 0.00 | 44 | 1013.0 |
| 20260508022034 | 69 | 227 | 2.0 | 5.0 | 0.00 | 0.00 | 0.00 | 42 | 1013.0 |
| 20260508021547 | 70 | 227 | 2.0 | 5.0 | 0.00 | 0.00 | 0.00 | 40 | 1013.0 |
| 20260508021033 | 71 | 227 | 3.0 | 6.0 | 0.00 | 0.00 | 0.00 | 36 | 1013.0 |
| 20260508020534 | 71 | 227 | 4.0 | 6.0 | 0.00 | 0.00 | 0.00 | 36 | 1013.0 |
| 20260508020038 | 71 | 227 | 4.0 | 6.0 | 0.00 | 0.00 | 0.00 | 35 | 1013.0 |
| 20260508015533 | 71 | 227 | 5.0 | 6.0 | 0.00 | 0.00 | 0.00 | 36 | 1013.0 |
| 20260508015035 | 71 | 227 | 4.0 | 6.0 | 0.00 | 0.00 | 0.00 | 36 | 1013.1 |
| 20260508014543 | 72 | 227 | 4.0 | 6.0 | 0.00 | 0.00 | 0.00 | 33 | 1013.1 |
| 20260508014033 | 72 | 227 | 4.0 | 8.0 | 0.00 | 0.00 | 0.00 | 32 | 1013.2 |
| 20260508013535 | 71 | 227 | 3.0 | 10.0 | 0.00 | 0.00 | 0.00 | 29 | 1013.2 |
| 20260508013048 | 72 | 227 | 7.0 | 10.0 | 0.00 | 0.00 | 0.00 | 32 | 1013.2 |
| 20260508012534 | 73 | 227 | 6.0 | 9.0 | 0.00 | 0.00 | 0.00 | 29 | 1013.3 |
| 20260508012032 | 73 | 227 | 5.0 | 10.0 | 0.00 | 0.00 | 0.00 | 24 | 1013.3 |
| 20260508011538 | 74 | 227 | 7.0 | 10.0 | 0.00 | 0.00 | 0.00 | 25 | 1013.3 |
| 20260508011033 | 74 | 227 | 6.0 | 12.0 | 0.00 | 0.00 | 0.00 | 23 | 1013.2 |
| 20260508010530 | 74 | 227 | 6.0 | 13.0 | 0.00 | 0.00 | 0.00 | 24 | 1013.3 |
| 20260508010047 | 74 | 227 | 9.0 | 13.0 | 0.00 | 0.00 | 0.00 | 21 | 1013.4 |
| 20260508005536 | 75 | 227 | 2.0 | 11.0 | 0.00 | 0.00 | 0.00 | 28 | 1013.4 |
| 20260508005030 | 74 | 227 | 2.0 | 14.0 | 0.00 | 0.00 | 0.00 | 28 | 1013.4 |
| 20260508004546 | 74 | 227 | 6.0 | 14.0 | 0.00 | 0.00 | 0.00 | 28 | 1013.5 |
| 20260508004034 | 74 | 227 | 3.0 | 10.0 | 0.00 | 0.00 | 0.00 | 28 | 1013.5 |
| 20260508003534 | 74 | 227 | 4.0 | 7.0 | 0.00 | 0.00 | 0.00 | 27 | 1013.6 |
| 20260508003041 | 74 | 227 | 1.0 | 12.0 | 0.00 | 0.00 | 0.00 | 28 | 1013.6 |
| 20260508002534 | 74 | 227 | 3.0 | 12.0 | 0.00 | 0.00 | 0.00 | 29 | 1013.7 |
| 20260508002034 | 74 | 227 | 3.0 | 13.0 | 0.00 | 0.00 | 0.00 | 29 | 1013.7 |
| 20260508001547 | 73 | 227 | 7.0 | 13.0 | 0.00 | 0.00 | 0.00 | 29 | 1013.8 |
| 20260508001033 | 74 | 227 | 6.0 | 12.0 | 0.00 | 0.00 | 0.00 | 29 | 1013.8 |
| 20260508000536 | 74 | 227 | 7.0 | 12.0 | 0.00 | 0.00 | 0.00 | 28 | 1013.7 |
| 20260508000050 | 73 | 227 | 1.0 | 15.0 | 0.00 | 0.00 | 0.00 | 29 | 1013.6 |
| 20260507235534 | 73 | 227 | 8.0 | 15.0 | 0.00 | 0.00 | 0.00 | 30 | 1013.7 |
| 20260507235037 | 74 | 227 | 8.0 | 14.0 | 0.00 | 0.00 | 0.00 | 29 | 1013.7 |
| 20260507234548 | 74 | 227 | 2.0 | 8.0 | 0.00 | 0.00 | 0.00 | 29 | 1013.7 |
| 20260507234035 | 74 | 227 | 3.0 | 8.0 | 0.00 | 0.00 | 0.00 | 30 | 1013.8 |
| 20260507233536 | 73 | 227 | 3.0 | 8.0 | 0.00 | 0.00 | 0.00 | 31 | 1013.8 |
| 20260507233048 | 73 | 227 | 4.0 | 7.0 | 0.00 | 0.00 | 0.00 | 31 | 1013.8 |
| 20260507232534 | 73 | 0 | 1.0 | 10.0 | 0.00 | 0.00 | 0.00 | 30 | 1013.9 |
| 20260507232034 | 73 | 227 | 5.0 | 12.0 | 0.00 | 0.00 | 0.00 | 30 | 1013.8 |
| 20260507231541 | 73 | 227 | 5.0 | 12.0 | 0.00 | 0.00 | 0.00 | 31 | 1014.1 |
| 20260507231034 | 73 | 227 | 4.0 | 12.0 | 0.00 | 0.00 | 0.00 | 32 | 1014.1 |
| 20260507230534 | 73 | 227 | 8.0 | 12.0 | 0.00 | 0.00 | 0.00 | 31 | 1014.1 |
| 20260507230048 | 73 | 227 | 3.0 | 13.0 | 0.00 | 0.00 | 0.00 | 31 | 1014.1 |
| 20260507225534 | 73 | 227 | 6.0 | 13.0 | 0.00 | 0.00 | 0.00 | 30 | 1014.2 |
| 20260507225034 | 73 | 227 | 2.0 | 10.0 | 0.00 | 0.00 | 0.00 | 31 | 1014.3 |
| 20260507224548 | 73 | 227 | 4.0 | 14.0 | 0.00 | 0.00 | 0.00 | 31 | 1014.2 |
| 20260507224034 | 73 | 227 | 6.0 | 14.0 | 0.00 | 0.00 | 0.00 | 32 | 1014.4 |
| 20260507223534 | 73 | 227 | 4.0 | 15.0 | 0.00 | 0.00 | 0.00 | 33 | 1014.4 |
| 20260507223038 | 72 | 227 | 9.0 | 15.0 | 0.00 | 0.00 | 0.00 | 35 | 1014.5 |
| 20260507222536 | 72 | 227 | 4.0 | 12.0 | 0.00 | 0.00 | 0.00 | 35 | 1014.6 |
| 20260507222034 | 72 | 227 | 6.0 | 13.0 | 0.00 | 0.00 | 0.00 | 35 | 1014.7 |
| 20260507221541 | 71 | 227 | 2.0 | 13.0 | 0.00 | 0.00 | 0.00 | 35 | 1014.8 |
| 20260507221036 | 71 | 227 | 7.0 | 12.0 | 0.00 | 0.00 | 0.00 | 35 | 1015.0 |
| 20260507220536 | 72 | 227 | 5.0 | 9.0 | 0.00 | 0.00 | 0.00 | 34 | 1015.0 |
| 20260507220049 | 72 | 227 | 4.0 | 12.0 | 0.00 | 0.00 | 0.00 | 33 | 1015.1 |
| 20260507215537 | 72 | 227 | 5.0 | 12.0 | 0.00 | 0.00 | 0.00 | 35 | 1015.1 |
| 20260507215034 | 71 | 227 | 4.0 | 10.0 | 0.00 | 0.00 | 0.00 | 35 | 1015.2 |
| 20260507214600 | 71 | 227 | 4.0 | 15.0 | 0.00 | 0.00 | 0.00 | 34 | 1015.3 |
| 20260507214033 | 71 | 227 | 6.0 | 15.0 | 0.00 | 0.00 | 0.00 | 34 | 1015.2 |
| 20260507213538 | 70 | 227 | 5.0 | 16.0 | 0.00 | 0.00 | 0.00 | 35 | 1015.4 |
| 20260507213046 | 70 | 227 | 8.0 | 16.0 | 0.00 | 0.00 | 0.00 | 36 | 1015.4 |
| 20260507212536 | 71 | 227 | 10.0 | 15.0 | 0.00 | 0.00 | 0.00 | 35 | 1015.6 |
| 20260507212038 | 70 | 227 | 7.0 | 14.0 | 0.00 | 0.00 | 0.00 | 37 | 1015.4 |
| 20260507211541 | 70 | 229 | 8.0 | 17.0 | 0.00 | 0.00 | 0.00 | 36 | 1015.6 |
| 20260507211034 | 70 | 229 | 9.0 | 17.0 | 0.00 | 0.00 | 0.00 | 37 | 1015.6 |
| 20260507210534 | 70 | 228 | 10.0 | 17.0 | 0.00 | 0.00 | 0.00 | 37 | 1015.7 |
| 20260507210042 | 70 | 228 | 7.0 | 14.0 | 0.00 | 0.00 | 0.00 | 37 | 1015.7 |
| 20260507205534 | 71 | 228 | 6.0 | 14.0 | 0.00 | 0.00 | 0.00 | 37 | 1015.6 |
| 20260507205034 | 70 | 227 | 3.0 | 17.0 | 0.00 | 0.00 | 0.00 | 38 | 1015.7 |
| 20260507204548 | 69 | 227 | 8.0 | 18.0 | 0.00 | 0.00 | 0.00 | 37 | 1015.7 |
| 20260507204036 | 69 | 227 | 11.0 | 19.0 | 0.00 | 0.00 | 0.00 | 38 | 1015.7 |
| 20260507203534 | 69 | 232 | 10.0 | 19.0 | 0.00 | 0.00 | 0.00 | 37 | 1015.7 |
| 20260507203058 | 69 | 232 | 12.0 | 19.0 | 0.00 | 0.00 | 0.00 | 38 | 1015.9 |
| 20260507202533 | 69 | 233 | 10.0 | 18.0 | 0.00 | 0.00 | 0.00 | 38 | 1015.8 |
| 20260507202033 | 69 | 227 | 9.0 | 18.0 | 0.00 | 0.00 | 0.00 | 39 | 1015.9 |
| 20260507201555 | 69 | 236 | 8.0 | 17.0 | 0.00 | 0.00 | 0.00 | 37 | 1015.9 |
| 20260507201034 | 68 | 236 | 10.0 | 17.0 | 0.00 | 0.00 | 0.00 | 38 | 1015.9 |
| 20260507200536 | 68 | 223 | 10.0 | 19.0 | 0.00 | 0.00 | 0.00 | 41 | 1016.0 |
| 20260507195531 | 68 | 213 | 10.0 | 21.0 | 0.00 | 0.00 | 0.00 | 40 | 1016.0 |
| 20260507195033 | 68 | 215 | 14.0 | 21.0 | 0.00 | 0.00 | 0.00 | 39 | 1016.0 |
| 20260507194541 | 68 | 212 | 11.0 | 18.0 | 0.00 | 0.00 | 0.00 | 42 | 1016.0 |
| 20260507194032 | 68 | 210 | 11.0 | 20.0 | 0.00 | 0.00 | 0.00 | 42 | 1016.0 |
| 20260507193532 | 68 | 186 | 12.0 | 20.0 | 0.00 | 0.00 | 0.00 | 41 | 1016.0 |
| 20260507193050 | 68 | 190 | 10.0 | 18.0 | 0.00 | 0.00 | 0.00 | 42 | 1015.9 |
| 20260507192534 | 67 | 192 | 11.0 | 21.0 | 0.00 | 0.00 | 0.00 | 43 | 1016.1 |
| 20260507192039 | 67 | 202 | 10.0 | 21.0 | 0.00 | 0.00 | 0.00 | 42 | 1016.0 |
| 20260507191544 | 67 | 196 | 12.0 | 19.0 | 0.00 | 0.00 | 0.00 | 42 | 1016.0 |
| 20260507191035 | 67 | 206 | 10.0 | 19.0 | 0.00 | 0.00 | 0.00 | 43 | 1016.1 |
| 20260507190535 | 66 | 206 | 11.0 | 18.0 | 0.00 | 0.00 | 0.00 | 43 | 1016.1 |
| 20260507190047 | 66 | 222 | 10.0 | 21.0 | 0.00 | 0.00 | 0.00 | 44 | 1016.2 |
| 20260507185534 | 66 | 228 | 12.0 | 27.0 | 0.00 | 0.00 | 0.00 | 45 | 1016.2 |
| 20260507185031 | 66 | 228 | 16.0 | 27.0 | 0.00 | 0.00 | 0.00 | 45 | 1016.4 |
| 20260507184546 | 65 | 225 | 11.0 | 23.0 | 0.00 | 0.00 | 0.00 | 48 | 1016.3 |
| 20260507184031 | 65 | 221 | 16.0 | 22.0 | 0.00 | 0.00 | 0.00 | 47 | 1016.4 |
| 20260507183531 | 65 | 211 | 12.0 | 23.0 | 0.00 | 0.00 | 0.00 | 49 | 1016.3 |
| 20260507183038 | 65 | 181 | 11.0 | 23.0 | 0.00 | 0.00 | 0.00 | 50 | 1016.2 |
| 20260507182531 | 65 | 167 | 10.0 | 19.0 | 0.00 | 0.00 | 0.00 | 49 | 1016.3 |
| 20260507182031 | 65 | 196 | 12.0 | 19.0 | 0.00 | 0.00 | 0.00 | 50 | 1016.3 |
| 20260507181546 | 65 | 185 | 10.0 | 22.0 | 0.00 | 0.00 | 0.00 | 51 | 1016.2 |
| 20260507181034 | 64 | 190 | 14.0 | 22.0 | 0.00 | 0.00 | 0.00 | 52 | 1016.3 |
| 20260507180540 | 64 | 188 | 11.0 | 21.0 | 0.00 | 0.00 | 0.00 | 53 | 1016.3 |
| 20260507180049 | 63 | 190 | 12.0 | 22.0 | 0.00 | 0.00 | 0.00 | 55 | 1016.3 |
| 20260507175537 | 64 | 178 | 15.0 | 22.0 | 0.00 | 0.00 | 0.00 | 55 | 1016.3 |
| 20260507175033 | 64 | 174 | 12.0 | 20.0 | 0.00 | 0.00 | 0.00 | 56 | 1016.2 |
| 20260507174545 | 64 | 172 | 10.0 | 20.0 | 0.00 | 0.00 | 0.00 | 55 | 1016.4 |
| 20260507174034 | 64 | 175 | 8.0 | 18.0 | 0.00 | 0.00 | 0.00 | 57 | 1016.4 |
| 20260507173532 | 63 | 175 | 12.0 | 19.0 | 0.00 | 0.00 | 0.00 | 56 | 1016.5 |
| 20260507173044 | 62 | 171 | 13.0 | 21.0 | 0.00 | 0.00 | 0.00 | 60 | 1016.5 |
| 20260507172531 | 62 | 169 | 13.0 | 21.0 | 0.00 | 0.00 | 0.00 | 60 | 1016.6 |
| 20260507172030 | 61 | 173 | 13.0 | 20.0 | 0.00 | 0.00 | 0.00 | 60 | 1016.6 |
| 20260507171543 | 62 | 168 | 14.0 | 19.0 | 0.00 | 0.00 | 0.00 | 60 | 1016.6 |
| 20260507171031 | 61 | 171 | 11.0 | 18.0 | 0.00 | 0.00 | 0.00 | 61 | 1016.6 |
| 20260507170531 | 61 | 173 | 9.0 | 19.0 | 0.00 | 0.00 | 0.00 | 62 | 1016.7 |
| 20260507170055 | 61 | 173 | 13.0 | 19.0 | 0.00 | 0.00 | 0.00 | 62 | 1016.7 |
| 20260507165530 | 60 | 180 | 10.0 | 17.0 | 0.00 | 0.00 | 0.00 | 64 | 1016.7 |
| 20260507165034 | 61 | 181 | 11.0 | 18.0 | 0.00 | 0.00 | 0.00 | 63 | 1016.8 |
| 20260507164557 | 60 | 182 | 11.0 | 20.0 | 0.00 | 0.00 | 0.00 | 65 | 1016.7 |
| 20260507164034 | 60 | 178 | 13.0 | 20.0 | 0.00 | 0.00 | 0.00 | 66 | 1016.7 |
| 20260507163534 | 60 | 169 | 9.0 | 18.0 | 0.00 | 0.00 | 0.00 | 66 | 1016.6 |
| 20260507163044 | 60 | 169 | 12.0 | 18.0 | 0.00 | 0.00 | 0.00 | 66 | 1016.5 |
| 20260507162534 | 60 | 171 | 12.0 | 16.0 | 0.00 | 0.00 | 0.00 | 66 | 1016.5 |
| 20260507162034 | 60 | 171 | 12.0 | 16.0 | 0.00 | 0.00 | 0.00 | 66 | 1016.5 |
| 20260507161545 | 60 | 171 | 8.0 | 18.0 | 0.00 | 0.00 | 0.00 | 67 | 1016.6 |
| 20260507161034 | 59 | 172 | 11.0 | 18.0 | 0.00 | 0.00 | 0.00 | 68 | 1016.5 |
| 20260507160534 | 59 | 182 | 9.0 | 15.0 | 0.00 | 0.00 | 0.00 | 70 | 1016.5 |
| 20260507160054 | 58 | 185 | 9.0 | 15.0 | 0.00 | 0.00 | 0.00 | 69 | 1016.6 |
| 20260507155533 | 58 | 186 | 8.0 | 19.0 | 0.00 | 0.00 | 0.00 | 71 | 1016.7 |
| 20260507155037 | 58 | 186 | 11.0 | 19.0 | 0.00 | 0.00 | 0.00 | 70 | 1016.7 |
| 20260507154553 | 58 | 178 | 9.0 | 18.0 | 0.00 | 0.00 | 0.00 | 73 | 1016.4 |
| 20260507154036 | 57 | 178 | 10.0 | 18.0 | 0.00 | 0.00 | 0.00 | 72 | 1016.5 |
| 20260507153533 | 57 | 178 | 14.0 | 18.0 | 0.00 | 0.00 | 0.00 | 73 | 1016.5 |
| 20260507153045 | 57 | 159 | 11.0 | 19.0 | 0.00 | 0.00 | 0.00 | 74 | 1016.4 |
| 20260507152534 | 56 | 159 | 12.0 | 20.0 | 0.00 | 0.00 | 0.00 | 75 | 1016.4 |
| 20260507152035 | 56 | 159 | 14.0 | 20.0 | 0.00 | 0.00 | 0.00 | 75 | 1016.2 |
| 20260507151545 | 56 | 167 | 13.0 | 20.0 | 0.00 | 0.00 | 0.00 | 75 | 1016.4 |
| 20260507151034 | 56 | 168 | 13.0 | 21.0 | 0.00 | 0.00 | 0.00 | 76 | 1016.5 |
| 20260507150535 | 56 | 167 | 14.0 | 21.0 | 0.00 | 0.00 | 0.00 | 76 | 1016.4 |
| 20260507150045 | 55 | 164 | 13.0 | 17.0 | 0.00 | 0.00 | 0.00 | 77 | 1016.5 |
| 20260507145534 | 55 | 164 | 12.0 | 17.0 | 0.00 | 0.00 | 0.00 | 77 | 1016.4 |
| 20260507145035 | 55 | 164 | 10.0 | 17.0 | 0.00 | 0.00 | 0.00 | 78 | 1016.4 |
| 20260507144542 | 55 | 164 | 11.0 | 14.0 | 0.00 | 0.00 | 0.00 | 78 | 1016.4 |
| 20260507144034 | 55 | 164 | 8.0 | 16.0 | 0.00 | 0.00 | 0.00 | 79 | 1016.2 |
| 20260507143535 | 54 | 164 | 6.0 | 16.0 | 0.00 | 0.00 | 0.00 | 79 | 1016.2 |
| 20260507143048 | 54 | 164 | 11.0 | 16.0 | 0.00 | 0.00 | 0.00 | 80 | 1016.1 |
| 20260507142535 | 54 | 164 | 11.0 | 16.0 | 0.00 | 0.00 | 0.00 | 80 | 1016.1 |
| 20260507142035 | 54 | 164 | 9.0 | 17.0 | 0.00 | 0.00 | 0.00 | 80 | 1016.0 |
| 20260507141552 | 54 | 164 | 10.0 | 17.0 | 0.00 | 0.00 | 0.00 | 81 | 1016.1 |
| 20260507141035 | 53 | 164 | 10.0 | 14.0 | 0.00 | 0.00 | 0.00 | 81 | 1016.0 |
| 20260507140535 | 53 | 164 | 8.0 | 14.0 | 0.00 | 0.00 | 0.00 | 81 | 1016.0 |
| 20260507140044 | 53 | 164 | 10.0 | 14.0 | 0.00 | 0.00 | 0.00 | 82 | 1015.9 |
| 20260507135534 | 53 | 164 | 8.0 | 16.0 | 0.00 | 0.00 | 0.00 | 82 | 1015.9 |
| 20260507135034 | 52 | 164 | 7.0 | 16.0 | 0.00 | 0.00 | 0.00 | 82 | 1016.0 |
| 20260507134550 | 52 | 164 | 9.0 | 14.0 | 0.00 | 0.00 | 0.00 | 82 | 1015.9 |
| 20260507134035 | 52 | 164 | 10.0 | 14.0 | 0.00 | 0.00 | 0.00 | 82 | 1015.9 |
| 20260507133534 | 52 | 164 | 11.0 | 16.0 | 0.00 | 0.00 | 0.00 | 82 | 1015.8 |
| 20260507133101 | 52 | 164 | 11.0 | 17.0 | 0.00 | 0.00 | 0.00 | 82 | 1015.7 |
| 20260507132536 | 52 | 164 | 13.0 | 17.0 | 0.00 | 0.00 | 0.00 | 83 | 1015.7 |
| 20260507132033 | 52 | 164 | 12.0 | 16.0 | 0.00 | 0.00 | 0.00 | 84 | 1015.7 |
| 20260507131551 | 51 | 164 | 10.0 | 16.0 | 0.00 | 0.00 | 0.00 | 84 | 1015.6 |